Location: Cactus School
(34.5700°N, 118.0931°W)
Time: 02:18:21
(UTC-07:00)

Courier 1B - Pass Details

Date: 24 April 2024
Orbit: 962 x 1208 km, 28.3° (Epoch: 23 May)

Event Time Altitude Azimuth Distance (km) Brightness Sun altitude
Exits shadow 04:50:57 22° 251° (WSW) 2,210 8.7 -15.7°
Maximum altitude 04:55:10 41° 195° (SSW) 1,496 8.2 -14.9°
Drops below altitude 10° 05:01:32 10° 127° (SE) 2,813 10.3 -13.8°
Sets 05:04:18 0° 120° (ESE) 3,730 11.1 -13.3°
